FW2951 Weather Reports


time (UTC)temp
F
wind
direction
speed
knots
gust
knots
rain 1hr
in
rain 24hr
in
rain mn
in
humidity
%
barometer
mb
20260502233544 52 0 0.0 0.9 0.00 0.00 0.00 55 1016.2
20260502233053 52 0 0.0 1.7 0.00 0.00 0.00 57 1016.1
20260502232547 52 0 0.0 1.7 0.00 0.00 0.00 56 1016.0
20260502232044 52 0 0.0 1.7 0.00 0.00 0.00 54 1016.1
20260502231608 53 313 0.0 1.7 0.00 0.00 0.00 54 1016.0
20260502231043 53 0 0.0 1.7 0.00 0.00 0.00 56 1015.9
20260502230545 53 0 0.0 1.7 0.00 0.00 0.00 56 1015.9
20260502230052 53 0 0.0 0.9 0.00 0.00 0.00 56 1015.8
20260502225544 53 0 0.0 1.7 0.00 0.00 0.00 55 1015.8
20260502225044 53 0 0.0 1.7 0.00 0.00 0.00 55 1015.8
20260502224556 53 0 0.0 0.9 0.00 0.00 0.00 55 1015.8
20260502224042 53 0 0.0 3.5 0.00 0.00 0.00 54 1015.8
20260502223546 53 0 0.0 3.5 0.00 0.00 0.00 51 1015.8
20260502223101 53 0 0.0 0.9 0.00 0.00 0.00 51 1015.8
20260502222545 53 0 0.0 0.9 0.00 0.00 0.00 52 1015.7
20260502222043 53 0 0.0 0.0 0.00 0.00 0.00 52 1015.8
20260502221553 53 0 0.0 2.6 0.00 0.00 0.00 51 1015.8
20260502221045 54 0 0.0 2.6 0.00 0.00 0.00 48 1015.6
20260502220545 54 0 0.0 0.9 0.00 0.00 0.00 52 1015.6
20260502220057 54 0 0.0 0.9 0.00 0.00 0.00 50 1015.5
20260502215545 54 0 0.0 1.7 0.00 0.00 0.00 51 1015.5
20260502215042 54 0 0.0 1.7 0.00 0.00 0.00 47 1015.4
20260502214554 54 0 0.0 1.7 0.00 0.00 0.00 52 1015.5
20260502214044 54 0 0.0 0.9 0.00 0.00 0.00 51 1015.4
20260502213545 55 0 0.0 0.9 0.00 0.00 0.00 48 1015.4
20260502213106 55 0 0.0 0.9 0.00 0.00 0.00 52 1015.4
20260502212547 54 0 0.0 0.9 0.00 0.00 0.00 53 1015.5
20260502212045 53 0 0.0 0.0 0.00 0.00 0.00 56 1015.5
20260502211552 53 0 0.0 0.0 0.00 0.00 0.00 58 1015.4
20260502211044 53 0 0.0 1.7 0.00 0.00 0.00 53 1015.5
20260502210542 54 0 0.0 1.7 0.00 0.00 0.00 53 1015.5
20260502210053 54 0 0.0 0.9 0.00 0.00 0.00 48 1015.4
20260502205542 55 0 0.0 3.5 0.00 0.00 0.00 49 1015.4
20260502205045 57 0 0.0 3.5 0.00 0.00 0.00 51 1015.4
20260502204616 56 0 0.0 2.6 0.00 0.00 0.00 48 1015.4
20260502204045 55 0 0.0 0.9 0.00 0.00 0.00 48 1015.5
20260502203546 54 0 0.0 0.9 0.00 0.00 0.00 50 1015.7
20260502203056 54 0 0.0 0.9 0.00 0.00 0.00 49 1015.7
20260502202546 55 0 0.0 0.9 0.00 0.00 0.00 52 1015.7
20260502202049 54 0 0.0 1.7 0.00 0.00 0.00 56 1015.7
20260502201552 53 0 0.0 1.7 0.00 0.00 0.00 53 1015.7
20260502201043 54 0 0.0 1.7 0.00 0.00 0.00 52 1015.7
20260502200542 54 0 0.0 0.9 0.00 0.00 0.00 54 1015.8
20260502200050 56 0 0.0 0.9 0.00 0.00 0.00 53 1015.9
20260502195545 56 0 0.0 0.9 0.00 0.00 0.00 57 1015.9
20260502195042 53 0 0.0 0.9 0.00 0.00 0.00 54 1015.9
20260502194549 53 0 0.0 0.9 0.00 0.00 0.00 54 1015.9
20260502194045 54 0 0.0 2.6 0.00 0.00 0.00 51 1016.0
20260502193545 54 0 0.0 2.6 0.00 0.00 0.00 50 1016.0
20260502193051 55 0 0.0 3.5 0.00 0.00 0.00 53 1016.1
20260502192545 54 0 0.0 3.5 0.00 0.00 0.00 52 1016.1
20260502192045 54 0 0.0 3.5 0.00 0.00 0.00 48 1016.1
20260502191552 55 0 0.0 1.7 0.00 0.00 0.00 50 1016.1
20260502191043 55 0 0.0 1.7 0.00 0.00 0.00 48 1016.1
20260502190544 54 0 0.0 0.9 0.00 0.00 0.00 50 1016.3
20260502190050 54 0 0.0 1.7 0.00 0.00 0.00 54 1016.4
20260502185543 54 0 0.0 1.7 0.00 0.00 0.00 55 1016.4
20260502185042 55 0 0.0 1.7 0.00 0.00 0.00 52 1016.4
20260502184558 55 0 0.0 0.0 0.00 0.00 0.00 53 1016.5
20260502184046 56 0 0.0 0.0 0.00 0.00 0.00 50 1016.4
20260502183545 55 0 0.0 0.0 0.00 0.00 0.00 52 1016.4
20260502183052 55 0 0.0 0.0 0.00 0.00 0.00 53 1016.6
20260502182545 55 0 0.0 0.9 0.00 0.00 0.00 49 1016.6
20260502182045 54 0 0.0 0.9 0.00 0.00 0.00 51 1016.7
20260502181553 54 0 0.0 1.7 0.00 0.00 0.00 52 1016.7
20260502181044 53 0 0.0 1.7 0.00 0.00 0.00 52 1016.7
20260502180544 52 244 0.0 3.5 0.00 0.00 0.00 51 1016.9
20260502180104 52 0 0.0 3.5 0.00 0.00 0.00 51 1017.0
20260502164043 55 0 0.0 2.6 0.00 0.00 0.00 54 1017.2
20260502163544 52 0 0.0 1.7 0.00 0.00 0.00 56 1017.3
20260502163053 52 0 0.0 1.7 0.00 0.00 0.00 52 1017.3
20260502162544 53 0 0.0 3.5 0.00 0.00 0.00 56 1017.3
20260502162043 54 0 0.0 3.5 0.00 0.00 0.00 50 1017.3
20260502161551 54 0 0.0 3.5 0.00 0.00 0.00 53 1017.3
20260502161044 53 0 0.0 0.9 0.00 0.00 0.00 56 1017.4
20260502160542 52 0 0.0 2.6 0.00 0.00 0.00 54 1017.4
20260502152044 52 0 0.0 1.7 0.00 0.00 0.00 55 1017.7
20260502151552 53 0 0.0 1.7 0.00 0.00 0.00 54 1017.6
20260502151048 54 0 0.0 0.0 0.00 0.00 0.00 55 1017.6
20260502150546 53 0 0.0 0.9 0.00 0.00 0.00 54 1017.6
20260502130545 47 0 0.0 0.0 0.00 0.00 0.00 81 1017.8
20260502123542 44 0 0.0 0.0 0.00 0.00 0.00 91 1017.7
20260502123055 43 0 0.0 0.0 0.00 0.00 0.00 91 1017.6
20260502122549 42 0 0.0 0.0 0.00 0.00 0.00 92 1017.6
20260502122046 42 0 0.0 0.0 0.00 0.00 0.00 92 1017.6
20260502121556 41 0 0.0 0.0 0.00 0.00 0.00 93 1017.4
20260502121045 40 0 0.0 0.0 0.00 0.00 0.00 93 1017.5
20260502120546 40 0 0.0 0.0 0.00 0.00 0.00 94 1017.5
20260502115544 39 0 0.0 0.0 0.00 0.00 0.00 95 1017.3
20260502115043 39 0 0.0 0.0 0.00 0.00 0.00 95 1017.3
20260502114553 38 0 0.0 0.0 0.00 0.00 0.00 95 1017.4
20260502114045 37 0 0.0 0.0 0.00 0.00 0.00 94 1017.4
20260502113542 37 0 0.0 0.0 0.00 0.00 0.00 94 1017.5
20260502113053 36 0 0.0 0.0 0.00 0.00 0.00 94 1017.4
20260502112549 36 0 0.0 0.0 0.00 0.00 0.00 94 1017.4
20260502112041 36 0 0.0 0.0 0.00 0.00 0.00 93 1017.3
20260502111613 36 0 0.0 0.0 0.00 0.00 0.00 94 1017.3
20260502111041 35 0 0.0 0.0 0.00 0.00 0.00 93 1017.2
20260502110544 35 0 0.0 0.0 0.00 0.00 0.00 93 1017.2
20260502110053 35 0 0.0 0.0 0.00 0.00 0.00 93 1017.2
20260502105545 35 0 0.0 0.0 0.00 0.00 0.00 93 1017.1
20260502105047 35 0 0.0 0.0 0.00 0.00 0.00 93 1017.1
20260502104549 35 0 0.0 0.0 0.00 0.00 0.00 93 1017.1
20260502104048 35 0 0.0 0.0 0.00 0.00 0.00 93 1017.0
20260502103545 35 0 0.0 0.0 0.00 0.00 0.00 93 1017.0
20260502103106 35 0 0.0 0.0 0.00 0.00 0.00 93 1017.0
20260502102543 35 0 0.0 0.0 0.00 0.00 0.00 93 1017.1
20260502102045 35 0 0.0 0.0 0.00 0.00 0.00 93 1017.2
20260502101601 35 0 0.0 0.0 0.00 0.00 0.00 92 1017.3
20260502101044 36 0 0.0 0.0 0.00 0.00 0.00 92 1017.4
20260502100544 36 0 0.0 0.0 0.00 0.00 0.00 93 1017.3
20260502091045 36 0 0.0 0.0 0.00 0.00 0.00 92 1017.5
20260502090545 36 0 0.0 0.0 0.00 0.00 0.00 92 1017.5
20260502071045 38 0 0.0 0.0 0.00 0.00 0.00 90 1017.2
20260502070545 38 0 0.0 0.0 0.00 0.00 0.00 90 1017.2
20260502070054 38 0 0.0 0.0 0.00 0.00 0.00 90 1017.2
20260502065545 38 0 0.0 0.0 0.00 0.00 0.00 90 1017.2
20260502065045 38 0 0.0 0.0 0.00 0.00 0.00 89 1017.3
20260502064548 38 0 0.0 0.0 0.00 0.00 0.00 90 1017.4
20260502064044 38 0 0.0 0.0 0.00 0.00 0.00 89 1017.3
20260502063545 39 0 0.0 0.0 0.00 0.00 0.00 89 1017.3
20260502063049 39 0 0.0 0.0 0.00 0.00 0.00 89 1017.3
20260502062543 39 0 0.0 0.0 0.00 0.00 0.00 89 1017.3
20260502062045 39 0 0.0 0.0 0.00 0.00 0.00 88 1017.4
20260502061552 39 0 0.0 0.0 0.00 0.00 0.00 88 1017.5
20260502061044 39 0 0.0 0.0 0.00 0.00 0.00 88 1017.6
20260502060545 39 0 0.0 0.0 0.00 0.00 0.00 88 1017.7
20260502060056 39 0 0.0 0.0 0.00 0.00 0.00 88 1017.7
20260502055545 40 0 0.0 0.0 0.00 0.00 0.00 88 1017.7
20260502055045 40 0 0.0 0.0 0.00 0.00 0.00 87 1017.7
20260502054600 40 0 0.0 0.0 0.00 0.00 0.00 87 1017.7
20260502054043 40 0 0.0 0.0 0.00 0.00 0.00 87 1017.7
20260502053542 40 0 0.0 0.0 0.00 0.00 0.00 87 1017.7
20260502053047 41 0 0.0 0.0 0.00 0.00 0.00 87 1017.8
20260502052544 41 0 0.0 0.0 0.00 0.00 0.00 86 1017.8
20260502052048 41 0 0.0 0.0 0.00 0.00 0.00 86 1017.9
20260502051549 41 0 0.0 0.0 0.00 0.00 0.00 86 1017.7
20260502051042 41 0 0.0 0.0 0.00 0.00 0.00 86 1017.8
20260502050545 41 0 0.0 0.0 0.00 0.00 0.00 86 1017.8
20260502050052 41 0 0.0 0.0 0.00 0.00 0.00 85 1017.8
20260502045544 42 0 0.0 0.0 0.00 0.00 0.00 85 1017.8
20260502045044 42 0 0.0 0.0 0.00 0.00 0.00 85 1017.9
20260502044548 42 0 0.0 0.0 0.00 0.00 0.00 84 1017.8
20260502044044 42 0 0.0 0.0 0.00 0.00 0.00 84 1018.0
20260502043541 42 0 0.0 0.0 0.00 0.00 0.00 83 1018.0
20260502043056 43 0 0.0 0.0 0.00 0.00 0.00 83 1018.1
20260502042549 43 0 0.0 0.0 0.00 0.00 0.00 83 1018.0
20260502042045 43 0 0.0 0.0 0.00 0.00 0.00 82 1018.1
20260502041549 43 0 0.0 0.0 0.00 0.00 0.00 82 1017.9
20260502041044 43 0 0.0 0.0 0.00 0.00 0.00 82 1018.0
20260502040545 44 0 0.0 0.0 0.00 0.00 0.00 82 1018.0
20260502040046 44 0 0.0 0.0 0.00 0.00 0.00 81 1017.8
20260502035547 44 0 0.0 0.0 0.00 0.00 0.00 81 1017.9
20260502035045 44 0 0.0 0.0 0.00 0.00 0.00 80 1017.9
20260502034553 44 0 0.0 0.0 0.00 0.00 0.00 80 1017.9
20260502034045 45 0 0.0 0.0 0.00 0.00 0.00 79 1017.9
20260502033545 45 0 0.0 0.0 0.00 0.00 0.00 79 1017.7
20260502033050 45 0 0.0 0.0 0.00 0.00 0.00 79 1017.7
20260502032544 45 0 0.0 0.0 0.00 0.00 0.00 79 1017.7
20260502032045 45 0 0.0 0.0 0.00 0.00 0.00 79 1017.8
20260502031548 45 0 0.0 0.0 0.00 0.00 0.00 79 1017.9
20260502031045 45 0 0.0 0.0 0.00 0.00 0.00 79 1017.9
20260502030545 46 0 0.0 0.0 0.00 0.00 0.00 78 1017.9
20260502030052 46 0 0.0 0.0 0.00 0.00 0.00 78 1017.9
20260502025545 46 0 0.0 0.0 0.00 0.00 0.00 78 1018.0
20260502025047 46 0 0.0 0.0 0.00 0.00 0.00 77 1017.9
20260502024553 46 0 0.0 0.0 0.00 0.00 0.00 77 1017.9
20260502024045 46 0 0.0 0.0 0.00 0.00 0.00 76 1017.9
20260502023545 47 0 0.0 0.0 0.00 0.00 0.00 75 1018.0
20260502023055 47 0 0.0 0.0 0.00 0.00 0.00 74 1018.0
20260502022545 47 0 0.0 0.0 0.00 0.00 0.00 74 1018.0
20260502022044 47 0 0.0 0.0 0.00 0.00 0.00 74 1017.9
20260502021549 48 0 0.0 0.0 0.00 0.00 0.00 74 1017.7
20260502021046 48 0 0.0 0.0 0.00 0.00 0.00 72 1017.6
20260502020545 48 0 0.0 0.0 0.00 0.00 0.00 72 1017.4
20260502020048 48 0 0.0 0.0 0.00 0.00 0.00 72 1017.2
20260502015542 49 0 0.0 0.0 0.00 0.00 0.00 71 1017.2
20260502015045 49 0 0.0 0.0 0.00 0.00 0.00 71 1017.1
20260502014552 49 0 0.0 0.0 0.00 0.00 0.00 71 1017.0
20260502014045 50 0 0.0 0.0 0.00 0.00 0.00 70 1017.0
20260502013544 50 0 0.0 0.0 0.00 0.00 0.00 69 1016.9
20260502013055 50 0 0.0 0.0 0.00 0.00 0.00 70 1016.8
20260502012545 50 0 0.0 0.0 0.00 0.00 0.00 70 1016.7
20260502012048 50 0 0.0 0.0 0.00 0.00 0.00 70 1016.6
20260502011552 51 0 0.0 0.0 0.00 0.00 0.00 69 1016.5
20260502011044 51 0 0.0 0.0 0.00 0.00 0.00 69 1016.5
20260502010544 51 0 0.0 0.0 0.00 0.00 0.00 69 1016.4
20260502010052 51 0 0.0 0.0 0.00 0.00 0.00 67 1016.2
20260502005545 52 0 0.0 0.9 0.00 0.00 0.00 67 1016.1
20260502005045 52 0 0.0 0.9 0.00 0.00 0.00 68 1016.0
20260502004604 52 0 0.0 5.2 0.00 0.00 0.00 68 1015.8
20260502004045 52 0 0.0 5.2 0.00 0.00 0.00 68 1015.6
20260502003542 52 131 0.0 5.2 0.00 0.00 0.00 67 1015.4
20260502003049 52 0 0.0 5.2 0.00 0.00 0.00 68 1015.3
20260502002548 53 0 0.0 5.2 0.00 0.00 0.00 68 1015.2
20260502002044 53 0 0.0 3.5 0.00 0.00 0.00 70 1015.1
20260502001555 53 166 0.0 3.5 0.00 0.00 0.00 68 1015.1
20260502001048 53 0 0.0 2.6 0.00 0.00 0.00 69 1015.1
20260502000546 54 0 0.0 2.6 0.00 0.00 0.00 69 1014.9
20260502000106 54 0 0.0 2.6 0.00 0.00 0.00 68 1014.7
20260501235547 54 0 0.0 2.6 0.00 0.00 0.00 67 1014.7
20260501235045 54 0 0.0 2.6 0.00 0.00 0.00 67 1014.5
20260501234555 54 0 0.0 2.6 0.00 0.00 0.00 66 1014.4
20260501234048 54 0 0.0 0.9 0.00 0.00 0.00 67 1014.1